Location: ???????
(56.2167°N, 38.0500°E)
Time: 13:29:45
(UTC+00:00)

Cosmos 2227 Rocket - Pass Details

Date: 19 May 2025
Orbit: 837 x 844 km, 71.0° (Epoch: 19 June)

Event Time Altitude Azimuth Distance (km) Brightness Sun altitude
Exits shadow 23:08:29 - 160° (SSE) 3,094 4.7 -10.7°
Reaches altitude 10° 23:10:37 10° 148° (SSE) 2,450 4.3 -10.6°
Maximum altitude 23:14:39 21° 101° (ESE) 1,816 4.1 -10.3°
Drops below altitude 10° 23:18:43 10° 55° (NE) 2,465 5.7 -10.1°
Sets 23:21:44 0° 40° (NE) 3,406 7.3 -9.9°
